Regional Weather Roundup
Issued by NWS Upton, NY

Current Version | Previous Version | Text Only | Print | Product List | Glossary On
Versions: 1 2 3 4 5 6 7 8 9 10 11 12 13 14 15 16 17 18 19 20 21 22 23 24 25 26 27 28 29 30 31 32 33 34 35 36 37 38 39 40 41 42 43 44 45 46 47 48 49 50
000
ASUS41 KOKX 290308
RWROKX

REGIONAL WEATHER ROUNDUP
NATIONAL WEATHER SERVICE NEW YORK NY
1100 PM EDT TUE JUL 28 2015

NOTE: "FAIR" INDICATES FEW OR NO CLOUDS BELOW 12,000 FEET WITH NO
SIGNIFICANT WEATHER AND/OR OBSTRUCTIONS TO VISIBILITY.

NYZ071-072-176-178-NJZ106-104-290400-
NEW YORK CITY METRO AREA


CITY           SKY/WX    TMP DP  RH WIND       PRES   REMARKS
CENTRAL PARK   CLEAR     83  69  62 VRB5      30.00S
LAGUARDIA APRT PTCLDY    84  68  58 S10       29.96F
KENNEDY INTL   PTCLDY    80  70  71 S5        29.98F
NEWARK/LIBERTY PTCLDY    82  72  71 S5        29.97S
BRNX BOT. GARD   N/A     81  68  65 SE2       29.98F
TETERBORO      CLEAR     82  69  64 S5        29.96R
$$

NYZ177-179-078>081-290400-
LONG ISLAND NEW YORK

CITY           SKY/WX    TMP DP  RH WIND       PRES   REMARKS
FARMINGDALE    CLEAR     79  72  79 SW6       29.99S
ISLIP          PTCLDY    76  71  85 SW7       29.97S
SHIRLEY        CLEAR     77  72  84 SW5       29.99S
WESTHAMPTON    CLEAR     76  73  91 SW6       29.99F
MONTAUK POINT    N/A     78  70  76 VRB3      29.97F
$$

NYZ052-065-067-290400-
HUDSON VALLEY

CITY           SKY/WX    TMP DP  RH WIND       PRES   REMARKS
WHITE PLAINS   CLEAR     74  68  81 CALM      29.99R
NEWBURGH       CLEAR     75  70  83 CALM      30.00R
MONTGOMERY     CLEAR     72  69  90 SE3       29.98S
POUGHKEEPSIE   CLEAR     75  69  81 CALM      29.96S
ALBANY         PTCLDY    76  66  71 S3        29.97S
$$

NJZ001-105-106-008-010-013-015-019>022-104-290400-
NEW JERSEY

CITY           SKY/WX    TMP DP  RH WIND       PRES   REMARKS
NEWARK/LIBERTY PTCLDY    82  72  71 S5        29.97S
TETERBORO      CLEAR     82  69  64 S5        29.96R
CALDWELL       CLEAR     78  64  61 CALM      29.98S
MORRISTOWN     CLEAR     70  63  78 CALM      29.98S
SOMERVILLE     CLEAR     71  66  84 CALM      29.96S
SUSSEX         CLEAR     70  66  87 CALM      30.00S
ANDOVER          N/A     70  68  93 CALM      30.00F
TRENTON        CLEAR     77  70  79 S6        29.98S
MILLVILLE      CLEAR     76  72  87 CALM      30.00R
ATLANTIC CITY  CLEAR     76  73  91 CALM      30.00R
WRIGHTSTOWN    CLEAR     73  72  94 SW3       29.97S
TOMS RIVER     CLEAR     73  70  88 CALM      30.00S
BELMAR         CLEAR     77  68  73 SW3       29.99S
$$

PAZ047>061-062-071-290400-
EASTERN PENNSYLVANIA

CITY           SKY/WX    TMP DP  RH WIND       PRES   REMARKS
PHILADELPHIA   PTCLDY    81  72  74 SW3       29.99F
ALLENTOWN      CLEAR     76  68  76 CALM      29.99S
SCRANTON       CLEAR     75  65  70 E8        30.03R
$$

CTZ002-004>006-009-010-012-RIZ004-006-007-MAZ004-011-015-290400-
SOUTHERN NEW ENGLAND
 IN CT

CITY           SKY/WX    TMP DP  RH WIND       PRES   REMARKS
BRADLEY INTL   MOCLDY    74  68  81 CALM      29.96S
HARTFORD       CLEAR     77  67  71 CALM      29.96R
DANBURY        CLEAR     71  65  81 CALM      30.01R
WTRBRY/OXFORD  CLEAR     72  64  78 SW3       30.02S
BRIDGEPORT     MOCLDY    79  73  82 SW5       29.97S
MERIDEN        CLEAR     73  67  81 CALM      29.97S
NEW HAVEN      CLEAR     77  71  82 SW7       29.98R
CHESTER        FAIR      75  70  83 SW5       30.00R
GROTON         CLEAR     74  70  87 CALM      29.96S
WILLIMANTIC    CLEAR     75  71  87 CALM      29.98R

 IN RI

CITY           SKY/WX    TMP DP  RH WIND       PRES   REMARKS
PROVIDENCE     PTCLDY    73  68  84 CALM      29.97S
BLOCK ISLAND   CLEAR     73  72  94 SW7       29.98S
WESTERLY       CLEAR     71  69  93 CALM      29.97S FOG

 IN MA

CITY           SKY/WX    TMP DP  RH WIND       PRES   REMARKS
BOSTON         PTCLDY    74  67  78 S5        29.95F
WORCESTER      CLEAR     72  63  73 W7        30.01S
WESTFIELD      CLEAR     73  70  90 CALM      29.97S
PROVINCETOWN   PTCLDY    70  63  78 SW6       29.96F
NANTUCKET      FOG       71  69  93 S5        29.97F VSB 1/4
$$

ANZ330-335-338-340-345-350-353-355-290400-
COASTAL MARINE OBSERVATIONS


STATION/POSITION TIME  SKY/WX   TEMP    WIND        PRES    VSBY  WAVE
                                AIR SEA DIR/SP/G                  HT/PER
                 (UTC)          (F)     (DEG/KT/KT) (MB)    (MI)  (FT/S)
NY HARB ENTRANCE 0250            78 77  220/ 10/ 12 1014.9          2/ 6
4S FIRE IS       NOT AVBL
20S FIRE ISLAND  0250            76 74  240/  8/  8 1015.3          2/ 9
GREAT SOUTH BAY  0200            78 81  250/ 10/ 14   N/A
23SW MTP         0250            75 75  240/ 10/ 12 1014.8          2/ 9
HUDSON CANYON    NOT AVBL
KINGS POINT      0200            81 70  170/  4/  6 1014.3
CENTRAL LI SOUND NOT AVBL
EASTERN LI SOUND 0200            72 69  190/  4/  4   N/A
ROBBINS REEF     0200            81     170/ 10/ 10 1013.9
$$


>>>>>>>>>>>>>>>>>>>>>>>>>>>> KEY <<<<<<<<<<<<<<<<<<<<<<<<<<<
>                                                          <
>     SKY/WX - SKY CONDITION/PRESENT WEATHER               <
>     TMP    - TEMPERATURE IN FAHRENHEIT                   <
>     DP     - DEWPOINT IN FAHRENHEIT                      <
>     RH     - RELATIVE HUMIDITY IN PERCENT                <
>     WIND   - DIRECTION AND SPEED IN MPH                  <
>     PRES   - MEAN SEA LEVEL PRESSURE IN INCHES OF HG     <
>     WCI    - WIND CHILL INDEX                            <
>     VSB    - VISIBILITY IN MILES                         <
>     HX     - HEAT INDEX                                  <
>     TC     - TEMPERATURE IN CELSIUS                      <
>     VRB    - VARIABLE WIND DIRECTION                     <
>                                                          <
>>>>>>>>>>>>>>>>>>>>>>>>>>>> KEY <<<<<<<<<<<<<<<<<<<<<<<<<<<




USA.gov is the U.S. government's official web portal to all federal, state and local government web resources and services.